Regional Weather Roundup
Issued by NWS

Home | Current Version | Previous Version | Text Only | Print | Product List | Glossary Off
Versions: 1 2 3 4 5 6 7 8 9 10 11 12 13 14 15 16 17 18 19 20 21 22 23 24 25 26 27 28 29 30 31 32 33 34 35 36 37 38 39 40 41 42 43 44 45 46 47 48 49 50

000
ASUS45 KSLC 260310
RWRUT

UTAH REGIONAL WEATHER ROUNDUP
NATIONAL WEATHER SERVICE SALT LAKE CITY UT
900 PM MDT WED MAY 25 2016

UTZ001>011-023>025-260400-

NORTHERN UTAH

CITY           SKY/WX    TMP DP  RH WIND       PRES   REMARKS
BRIGHAM CITY     N/A     58  42  55 CALM      30.01S
HILL AFB       PTCLDY    56  41  57 NW8       30.01S
LOGAN          PTCLDY    52  44  74 W7        30.03R
OGDEN          PTCLDY    55  43  63 N3        30.00S
PROVO AIRPORT  MOCLDY    59  39  47 NW14      30.00R
SALT LAKE CITY CLOUDY    61  44  53 N7        29.99R
VERNAL         CLEAR     57  34  41 NE13      29.98R
WENDOVER       CLOUDY    55  37  50 N12       30.04R
HEBER CITY     PTCLDY    48  34  57 E8        30.02R
WEST JORDAN    CLEAR     54  39  58 N5        30.02R

$$

UTZ012>022-026-027-260400-

SOUTHERN/CENTRAL UTAH

CITY           SKY/WX    TMP DP  RH WIND       PRES   REMARKS
BLANDING       PTCLDY    63  17  17 CALM      30.03S
BRYCE CANYON   MOCLDY    49  20  31 SW6       30.07S
CEDAR CITY     PTCLDY    55  19  24 SW8       29.97R
DELTA          CLOUDY    61  32  33 SW3G17    30.02R
HANKSVILLE     MOCLDY    68  10  10 SW6       29.91S
MILFORD        MOCLDY    62  31  31 N13       29.97R
MOAB/CYNLANDS  CLEAR     66   4   8 W7        29.89S
PRICE          CLOUDY    57  25  29 NW12G21   30.00R
ST GEORGE      PTCLDY    75  21  13 W8        29.89R

$$

REGIONAL REPORTS     COLORADO/ARIZONA

CITY           SKY/WX    TMP DP  RH WIND       PRES   REMARKS
CRAIG, CO      CLEAR     50  32  50 VRB3      30.03R
GRAND JUNCTION CLEAR     62  16  16 NW7       29.93S
RIFLE          CLEAR     59  21  23 W9        29.97S
MONTROSE       CLEAR     62  12  14 CALM      30.00R
CORTEZ         CLOUDY    62  21  20 SW7       29.99S
PAGE, AZ       MOCLDY    73  17  12 SW8       29.88R
GRAND CANYON   PTCLDY    55  19  24 SW9       30.06R
KINGMAN        CLOUDY    65 N/A N/A E18       29.95R
FLAGSTAFF      CLEAR     50  19  29 W3        30.08S

$$

REGIONAL REPORTS    NEVADA/IDAHO/WYOMING

CITY           SKY/WX    TMP DP  RH WIND       PRES   REMARKS
LAS VEGAS, NV  PTCLDY    72  32  23 SW9       29.84R
ELY            LGT RAIN  45  37  73 W6        30.12R
ELKO           CLOUDY    48  43  82 S7        30.08S
POCATELLO, ID  CLOUDY    54  42  64 S10       30.03R
BURLEY         PTCLDY    56  41  57 SW9       30.01R
EVANSTON, WY   CLOUDY    48  35  60 NE8       30.10S
ROCK SPRINGS   CLOUDY    44  35  70 W16       30.09F
KEMMERER         N/A     43  32  65 SW5       30.12R

$$



USA.gov is the U.S. government's official web portal to all federal, state and local government web resources and services.